Time,TemperatureF,DewpointF,PressureIn,WindDirection,WindDirectionDegrees,WindSpeedMPH,WindSpeedGustMPH,Humidity,HourlyPrecipIn,Conditions,Clouds,dailyrainin,SoftwareType,DateUTC
2013-08-20 00:00:00,66.1,63.1,30.07,West,264,0.0,0.0,90,0.00,,CLR,0.00,VWS V14.00,2013-08-20 04:00:00,
2013-08-20 00:01:00,66.1,63.1,30.07,West,265,0.0,0.0,90,0.00,,CLR,0.00,VWS V14.00,2013-08-20 04:01:00,
2013-08-20 00:06:00,66.0,63.3,30.07,West,265,0.0,0.0,91,0.00,,CLR,0.00,VWS V14.00,2013-08-20 04:06:00,
2013-08-20 00:11:00,65.9,63.2,30.07,West,265,0.0,0.0,91,0.00,,CLR,0.00,VWS V14.00,2013-08-20 04:11:00,
2013-08-20 00:16:00,65.8,63.1,30.07,West,264,0.0,0.0,91,0.00,,CLR,0.00,VWS V14.00,2013-08-20 04:16:00,
2013-08-20 00:21:00,65.8,63.1,30.07,West,264,0.0,0.0,91,0.00,,CLR,0.00,VWS V14.00,2013-08-20 04:21:00,
2013-08-20 00:26:00,65.8,63.1,30.07,West,265,0.0,0.0,91,0.00,,CLR,0.00,VWS V14.00,2013-08-20 04:26:00,
2013-08-20 00:31:00,65.8,63.1,30.07,West,265,0.0,0.0,91,0.00,,CLR,0.00,VWS V14.00,2013-08-20 04:31:00,
2013-08-20 00:41:00,65.6,62.9,30.07,North,0,0.0,0.0,91,0.00,,CLR,0.00,VWS V14.00,2013-08-20 04:41:00,
2013-08-20 00:46:00,65.5,62.8,30.07,West,264,0.0,0.0,91,0.00,,CLR,0.00,VWS V14.00,2013-08-20 04:46:00,
2013-08-20 00:51:00,65.4,62.7,30.07,West,265,0.0,0.0,91,0.00,,CLR,0.00,VWS V14.00,2013-08-20 04:51:00,
2013-08-20 00:56:00,65.4,62.7,30.07,West,264,0.0,0.0,91,0.00,,CLR,0.00,VWS V14.00,2013-08-20 04:56:00,
2013-08-20 01:01:00,65.4,62.7,30.07,West,264,0.0,0.0,91,0.00,,CLR,0.00,VWS V14.00,2013-08-20 05:01:00,
2013-08-20 01:06:00,65.3,62.6,30.07,West,265,0.0,0.0,91,0.00,,CLR,0.00,VWS V14.00,2013-08-20 05:06:00,
2013-08-20 01:11:00,65.2,62.5,30.07,West,265,0.0,0.0,91,0.00,,CLR,0.00,VWS V14.00,2013-08-20 05:11:00,
2013-08-20 01:16:00,65.2,62.8,30.06,West,265,0.0,0.0,92,0.00,,CLR,0.00,VWS V14.00,2013-08-20 05:16:00,
2013-08-20 01:21:00,65.1,62.7,30.06,West,265,0.0,0.0,92,0.00,,CLR,0.00,VWS V14.00,2013-08-20 05:21:00,
2013-08-20 01:26:00,65.1,62.7,30.06,West,264,0.0,0.0,92,0.00,,CLR,0.00,VWS V14.00,2013-08-20 05:26:00,
2013-08-20 01:31:00,65.0,62.6,30.06,West,265,0.0,0.0,92,0.00,,CLR,0.00,VWS V14.00,2013-08-20 05:31:00,
2013-08-20 01:36:00,65.1,62.7,30.06,West,265,0.0,0.0,92,0.00,,CLR,0.00,VWS V14.00,2013-08-20 05:36:00,
2013-08-20 01:41:00,65.1,62.7,30.06,West,264,0.0,0.0,92,0.00,,CLR,0.00,VWS V14.00,2013-08-20 05:41:00,
2013-08-20 01:46:00,65.2,62.8,30.06,West,265,0.0,0.0,92,0.00,,CLR,0.00,VWS V14.00,2013-08-20 05:46:00,
2013-08-20 01:51:00,65.2,62.8,30.06,West,265,0.0,0.0,92,0.00,,CLR,0.00,VWS V14.00,2013-08-20 05:51:00,
2013-08-20 01:56:00,65.3,62.9,30.06,West,265,0.0,0.0,92,0.00,,CLR,0.00,VWS V14.00,2013-08-20 05:56:00,
2013-08-20 02:01:00,65.4,63.0,30.05,West,264,0.0,0.0,92,0.00,,CLR,0.00,VWS V14.00,2013-08-20 06:01:00,
2013-08-20 02:06:00,65.4,63.0,30.05,West,265,0.0,0.0,92,0.00,,CLR,0.00,VWS V14.00,2013-08-20 06:06:00,
2013-08-20 02:11:00,65.4,63.0,30.05,West,265,0.0,0.0,92,0.00,,CLR,0.00,VWS V14.00,2013-08-20 06:11:00,
2013-08-20 02:16:00,65.4,63.0,30.06,West,264,0.0,1.0,92,0.00,,CLR,0.00,VWS V14.00,2013-08-20 06:16:00,
2013-08-20 02:21:00,65.5,63.1,30.06,West,265,0.0,0.0,92,0.00,,CLR,0.00,VWS V14.00,2013-08-20 06:21:00,
2013-08-20 02:26:00,65.5,63.1,30.06,West,265,0.0,0.0,92,0.00,,CLR,0.00,VWS V14.00,2013-08-20 06:26:00,
2013-08-20 02:31:00,65.4,63.0,30.06,West,265,0.0,0.0,92,0.00,,CLR,0.00,VWS V14.00,2013-08-20 06:31:00,
2013-08-20 02:36:00,65.4,63.0,30.06,West,264,0.0,0.0,92,0.00,,CLR,0.00,VWS V14.00,2013-08-20 06:36:00,
2013-08-20 02:41:00,65.3,62.9,30.06,West,265,0.0,0.0,92,0.00,,CLR,0.00,VWS V14.00,2013-08-20 06:41:00,
2013-08-20 02:46:00,65.2,62.8,30.06,West,265,0.0,0.0,92,0.00,,CLR,0.00,VWS V14.00,2013-08-20 06:46:00,
2013-08-20 02:51:00,65.1,62.7,30.06,West,264,0.0,0.0,92,0.00,,CLR,0.00,VWS V14.00,2013-08-20 06:51:00,
2013-08-20 02:56:00,65.0,62.6,30.06,West,264,0.0,0.0,92,0.00,,CLR,0.00,VWS V14.00,2013-08-20 06:56:00,
2013-08-20 03:01:00,64.9,62.5,30.06,West,265,0.0,0.0,92,0.00,,CLR,0.00,VWS V14.00,2013-08-20 07:01:00,
2013-08-20 03:06:00,64.8,62.4,30.06,West,265,0.0,0.0,92,0.00,,CLR,0.00,VWS V14.00,2013-08-20 07:06:00,
2013-08-20 03:11:00,64.7,62.3,30.06,West,265,0.0,0.0,92,0.00,,CLR,0.00,VWS V14.00,2013-08-20 07:11:00,
2013-08-20 03:16:00,64.6,62.2,30.06,West,264,0.0,0.0,92,0.00,,CLR,0.00,VWS V14.00,2013-08-20 07:16:00,
2013-08-20 03:21:00,64.5,62.1,30.06,West,265,0.0,0.0,92,0.00,,CLR,0.00,VWS V14.00,2013-08-20 07:21:00,
2013-08-20 03:26:00,64.4,62.0,30.06,West,265,0.0,0.0,92,0.00,,CLR,0.00,VWS V14.00,2013-08-20 07:26:00,
2013-08-20 03:31:00,64.3,61.9,30.05,West,265,0.0,0.0,92,0.00,,CLR,0.00,VWS V14.00,2013-08-20 07:31:00,
2013-08-20 03:36:00,64.2,61.8,30.05,West,265,0.0,0.0,92,0.00,,CLR,0.00,VWS V14.00,2013-08-20 07:36:00,
2013-08-20 03:41:00,64.1,62.0,30.05,West,264,0.0,0.0,93,0.00,,CLR,0.00,VWS V14.00,2013-08-20 07:41:00,
2013-08-20 03:46:00,64.0,61.9,30.05,West,264,0.0,0.0,93,0.00,,CLR,0.00,VWS V14.00,2013-08-20 07:46:00,
2013-08-20 03:51:00,64.0,61.9,30.05,West,265,0.0,0.0,93,0.00,,CLR,0.00,VWS V14.00,2013-08-20 07:51:00,
2013-08-20 03:56:00,63.9,61.5,30.05,West,265,0.0,0.0,92,0.00,,CLR,0.00,VWS V14.00,2013-08-20 07:56:00,
2013-08-20 04:01:00,63.8,61.4,30.05,West,264,0.0,0.0,92,0.00,,,0.00,VWS V14.00,2013-08-20 08:01:00,
2013-08-20 04:06:00,63.8,61.4,30.05,West,265,0.0,0.0,92,0.00,,,0.00,VWS V14.00,2013-08-20 08:06:00,
2013-08-20 04:11:00,63.7,61.3,30.05,West,265,0.0,0.0,92,0.00,,,0.00,VWS V14.00,2013-08-20 08:11:00,
2013-08-20 04:16:00,63.6,61.5,30.05,West,264,0.0,0.0,93,0.00,,,0.00,VWS V14.00,2013-08-20 08:16:00,
2013-08-20 04:21:00,63.6,61.5,30.05,West,265,0.0,0.0,93,0.00,,,0.00,VWS V14.00,2013-08-20 08:21:00,
2013-08-20 04:26:00,63.6,61.5,30.05,West,265,0.0,0.0,93,0.00,,,0.00,VWS V14.00,2013-08-20 08:26:00,
2013-08-20 04:31:00,63.6,61.5,30.05,West,265,0.0,0.0,93,0.00,,,0.00,VWS V14.00,2013-08-20 08:31:00,
2013-08-20 04:36:00,63.7,61.6,30.05,West,265,0.0,0.0,93,0.00,,,0.00,VWS V14.00,2013-08-20 08:36:00,
2013-08-20 04:41:00,63.8,61.7,30.05,West,264,0.0,0.0,93,0.00,,,0.00,VWS V14.00,2013-08-20 08:41:00,
2013-08-20 04:46:00,63.9,61.8,30.05,West,265,0.0,0.0,93,0.00,,,0.00,VWS V14.00,2013-08-20 08:46:00,
2013-08-20 04:51:00,63.9,61.8,30.05,West,264,0.0,0.0,93,0.00,,,0.00,VWS V14.00,2013-08-20 08:51:00,
2013-08-20 04:56:00,63.9,61.8,30.05,West,265,0.0,0.0,93,0.00,,,0.00,VWS V14.00,2013-08-20 08:56:00,
2013-08-20 05:06:00,63.9,61.8,30.06,North,0,0.0,0.0,93,0.00,,,0.00,VWS V14.00,2013-08-20 09:06:00,
2013-08-20 05:11:00,63.8,61.7,30.06,West,265,0.0,0.0,93,0.00,,,0.00,VWS V14.00,2013-08-20 09:11:00,
2013-08-20 05:16:00,63.7,61.6,30.06,West,264,0.0,0.0,93,0.00,,,0.00,VWS V14.00,2013-08-20 09:16:00,
2013-08-20 05:21:00,63.6,61.5,30.06,West,265,0.0,0.0,93,0.00,,,0.00,VWS V14.00,2013-08-20 09:21:00,
2013-08-20 05:26:00,63.6,61.5,30.06,West,265,0.0,0.0,93,0.00,,,0.00,VWS V14.00,2013-08-20 09:26:00,
2013-08-20 05:31:00,63.5,61.4,30.06,West,265,0.0,0.0,93,0.00,,,0.00,VWS V14.00,2013-08-20 09:31:00,
2013-08-20 05:36:00,63.4,61.3,30.06,West,265,0.0,0.0,93,0.00,,,0.00,VWS V14.00,2013-08-20 09:36:00,
2013-08-20 05:41:00,63.3,61.2,30.06,West,265,0.0,0.0,93,0.00,,,0.00,VWS V14.00,2013-08-20 09:41:00,
2013-08-20 05:46:00,63.2,61.2,30.07,West,265,0.0,0.0,93,0.00,,,0.00,VWS V14.00,2013-08-20 09:46:00,
2013-08-20 05:51:00,63.1,61.0,30.07,West,264,0.0,0.0,93,0.00,,,0.00,VWS V14.00,2013-08-20 09:51:00,
2013-08-20 05:56:00,63.1,61.0,30.07,West,264,0.0,0.0,93,0.00,,,0.00,VWS V14.00,2013-08-20 09:56:00,
2013-08-20 06:01:00,63.1,61.0,30.07,West,265,0.0,0.0,93,0.00,,,0.00,VWS V14.00,2013-08-20 10:01:00,
2013-08-20 06:06:00,63.1,61.0,30.07,West,265,0.0,0.0,93,0.00,,,0.00,VWS V14.00,2013-08-20 10:06:00,
2013-08-20 06:11:00,63.1,61.0,30.07,West,264,0.0,0.0,93,0.00,,,0.00,VWS V14.00,2013-08-20 10:11:00,
2013-08-20 06:16:00,63.0,61.0,30.08,West,265,0.0,0.0,93,0.00,,,0.00,VWS V14.00,2013-08-20 10:16:00,
2013-08-20 06:21:00,63.0,61.0,30.08,West,265,0.0,0.0,93,0.00,,,0.00,VWS V14.00,2013-08-20 10:21:00,
2013-08-20 06:26:00,63.0,61.0,30.08,West,265,0.0,0.0,93,0.00,,,0.00,VWS V14.00,2013-08-20 10:26:00,
2013-08-20 06:31:00,63.0,61.0,30.08,West,264,0.0,0.0,93,0.00,,,0.00,VWS V14.00,2013-08-20 10:31:00,
2013-08-20 06:36:00,63.1,61.0,30.08,West,264,0.0,0.0,93,0.00,,,0.00,VWS V14.00,2013-08-20 10:36:00,
2013-08-20 06:41:00,63.1,61.0,30.08,West,265,0.0,0.0,93,0.00,,,0.00,VWS V14.00,2013-08-20 10:41:00,
2013-08-20 06:46:00,63.2,61.2,30.09,West,265,0.0,0.0,93,0.00,,,0.00,VWS V14.00,2013-08-20 10:46:00,
2013-08-20 06:51:00,63.3,61.2,30.09,West,265,0.0,0.0,93,0.00,,,0.00,VWS V14.00,2013-08-20 10:51:00,
2013-08-20 06:56:00,63.5,61.4,30.09,West,265,0.0,0.0,93,0.00,,,0.00,VWS V14.00,2013-08-20 10:56:00,
2013-08-20 07:01:00,63.5,61.4,30.09,West,265,0.0,0.0,93,0.00,,,0.00,VWS V14.00,2013-08-20 11:01:00,
2013-08-20 07:06:00,63.5,61.4,30.09,West,264,0.0,0.0,93,0.00,,,0.00,VWS V14.00,2013-08-20 11:06:00,
2013-08-20 07:11:00,63.5,61.4,30.09,West,265,0.0,0.0,93,0.00,,,0.00,VWS V14.00,2013-08-20 11:11:00,
2013-08-20 07:16:00,63.6,61.5,30.10,West,265,0.0,0.0,93,0.00,,,0.00,VWS V14.00,2013-08-20 11:16:00,
2013-08-20 07:21:00,63.7,61.6,30.10,West,265,0.0,0.0,93,0.00,,,0.00,VWS V14.00,2013-08-20 11:21:00,
2013-08-20 07:26:00,63.8,61.7,30.10,West,265,0.0,0.0,93,0.00,,,0.00,VWS V14.00,2013-08-20 11:26:00,
2013-08-20 07:31:00,64.0,61.9,30.10,West,264,0.0,0.0,93,0.00,,,0.00,VWS V14.00,2013-08-20 11:31:00,
2013-08-20 07:36:00,64.4,62.3,30.10,West,265,0.0,0.0,93,0.00,,,0.00,VWS V14.00,2013-08-20 11:36:00,
2013-08-20 07:41:00,64.7,62.6,30.10,West,265,0.0,0.0,93,0.00,,,0.00,VWS V14.00,2013-08-20 11:41:00,
2013-08-20 07:46:00,65.2,63.1,30.10,West,265,1.0,1.0,93,0.00,,,0.00,VWS V14.00,2013-08-20 11:46:00,
2013-08-20 07:51:00,65.7,63.9,30.10,West,264,0.0,0.0,94,0.00,,,0.00,VWS V14.00,2013-08-20 11:51:00,
2013-08-20 07:56:00,66.1,64.3,30.10,West,265,0.0,0.0,94,0.00,,,0.00,VWS V14.00,2013-08-20 11:56:00,
2013-08-20 08:01:00,66.5,64.7,30.11,West,265,0.0,0.0,94,0.00,,,0.00,VWS V14.00,2013-08-20 12:01:00,
2013-08-20 08:06:00,66.9,65.1,30.11,West,264,0.0,0.0,94,0.00,,CLR,0.00,VWS V14.00,2013-08-20 12:06:00,
2013-08-20 08:11:00,67.3,65.5,30.11,West,268,0.0,0.0,94,0.00,,CLR,0.00,VWS V14.00,2013-08-20 12:11:00,
2013-08-20 08:16:00,67.9,66.1,30.11,West,269,0.0,1.0,94,0.00,,CLR,0.00,VWS V14.00,2013-08-20 12:16:00,
2013-08-20 08:21:00,68.3,66.5,30.11,West,269,0.0,1.0,94,0.00,,CLR,0.00,VWS V14.00,2013-08-20 12:21:00,
2013-08-20 08:26:00,68.9,67.1,30.11,North,360,1.0,2.0,94,0.00,,CLR,0.00,VWS V14.00,2013-08-20 12:26:00,
2013-08-20 08:31:00,69.4,67.3,30.11,North,360,0.0,0.0,93,0.00,,CLR,0.00,VWS V14.00,2013-08-20 12:31:00,
2013-08-20 08:36:00,69.9,67.5,30.11,North,360,0.0,0.0,92,0.00,,CLR,0.00,VWS V14.00,2013-08-20 12:36:00,
2013-08-20 08:41:00,70.6,67.5,30.11,WNW,288,0.0,0.0,90,0.00,,CLR,0.00,VWS V14.00,2013-08-20 12:41:00,
2013-08-20 08:46:00,71.0,67.6,30.11,WNW,290,0.0,0.0,89,0.00,,CLR,0.00,VWS V14.00,2013-08-20 12:46:00,
2013-08-20 08:51:00,71.6,67.9,30.11,WNW,302,0.0,0.0,88,0.00,,CLR,0.00,VWS V14.00,2013-08-20 12:51:00,
2013-08-20 08:56:00,72.4,68.3,30.11,WNW,298,0.0,1.0,87,0.00,,CLR,0.00,VWS V14.00,2013-08-20 12:56:00,
2013-08-20 09:01:00,72.9,68.8,30.12,WNW,298,0.0,0.0,87,0.00,,CLR,0.00,VWS V14.00,2013-08-20 13:01:00,
2013-08-20 09:06:00,73.5,68.4,30.12,North,11,2.0,3.0,84,0.00,,CLR,0.00,VWS V14.00,2013-08-20 13:06:00,
2013-08-20 09:11:00,74.7,69.9,30.12,North,11,0.0,1.0,85,0.00,,CLR,0.00,VWS V14.00,2013-08-20 13:11:00,
2013-08-20 09:16:00,75.5,69.6,30.12,North,11,0.0,0.0,82,0.00,,CLR,0.00,VWS V14.00,2013-08-20 13:16:00,
2013-08-20 09:21:00,75.6,70.1,30.12,NNE,13,0.0,1.0,83,0.00,,CLR,0.00,VWS V14.00,2013-08-20 13:21:00,
2013-08-20 09:26:00,76.1,69.8,30.12,NNW,348,0.0,0.0,81,0.00,,CLR,0.00,VWS V14.00,2013-08-20 13:26:00,
2013-08-20 09:31:00,76.1,69.5,30.12,NNW,348,0.0,0.0,80,0.00,,CLR,0.00,VWS V14.00,2013-08-20 13:31:00,
2013-08-20 09:36:00,76.4,69.0,30.12,NNW,347,0.0,1.0,78,0.00,,CLR,0.00,VWS V14.00,2013-08-20 13:36:00,
2013-08-20 09:41:00,76.7,69.3,30.12,North,360,3.0,5.0,78,0.00,,CLR,0.00,VWS V14.00,2013-08-20 13:41:00,
2013-08-20 09:46:00,77.1,70.1,30.12,North,355,0.0,0.0,79,0.00,,CLR,0.00,VWS V14.00,2013-08-20 13:46:00,
2013-08-20 09:51:00,77.8,70.8,30.12,WSW,239,1.0,1.0,79,0.00,,CLR,0.00,VWS V14.00,2013-08-20 13:51:00,
2013-08-20 09:55:00,77.8,70.8,30.12,WSW,238,4.0,5.0,79,0.00,,CLR,0.00,VWS V14.00,2013-08-20 13:55:00,
2013-08-20 10:01:00,78.1,69.9,30.12,NNW,333,0.0,0.0,76,0.00,,CLR,0.00,VWS V14.00,2013-08-20 14:01:00,
2013-08-20 10:06:00,79.4,70.8,30.12,East,79,0.0,1.0,75,0.00,,CLR,0.00,VWS V14.00,2013-08-20 14:06:00,
2013-08-20 10:10:00,79.5,70.1,30.12,North,5,5.0,5.0,73,0.00,,CLR,0.00,VWS V14.00,2013-08-20 14:10:00,
2013-08-20 10:15:00,79.8,72.3,30.12,North,355,0.0,0.0,78,0.00,,CLR,0.00,VWS V14.00,2013-08-20 14:15:00,
2013-08-20 10:20:00,80.2,71.2,30.12,North,355,0.0,0.0,74,0.00,,CLR,0.00,VWS V14.00,2013-08-20 14:20:00,
2013-08-20 10:25:00,80.5,71.8,30.12,North,9,5.0,5.0,75,0.00,,CLR,0.00,VWS V14.00,2013-08-20 14:25:00,
2013-08-20 10:30:00,80.2,69.5,30.12,North,9,1.0,1.0,70,0.00,,CLR,0.00,VWS V14.00,2013-08-20 14:30:00,
2013-08-20 10:35:00,80.1,70.3,30.12,North,9,0.0,1.0,72,0.00,,CLR,0.00,VWS V14.00,2013-08-20 14:35:00,
2013-08-20 10:40:00,80.6,71.2,30.12,North,360,1.0,1.0,73,0.00,,CLR,0.00,VWS V14.00,2013-08-20 14:40:00,
2013-08-20 10:45:00,80.7,69.6,30.12,North,5,0.0,0.0,69,0.00,,CLR,0.00,VWS V14.00,2013-08-20 14:45:00,
2013-08-20 10:51:00,81.3,70.6,30.12,NW,307,0.0,0.0,70,0.00,,CLR,0.00,VWS V14.00,2013-08-20 14:51:00,
2013-08-20 10:56:00,81.7,71.4,30.12,West,271,0.0,0.0,71,0.00,,CLR,0.00,VWS V14.00,2013-08-20 14:56:00,
2013-08-20 11:06:00,81.6,70.0,30.12,West,270,0.0,1.0,68,0.00,,CLR,0.00,VWS V14.00,2013-08-20 15:06:00,
2013-08-20 11:11:00,81.8,70.2,30.12,NE,34,0.0,0.0,68,0.00,,CLR,0.00,VWS V14.00,2013-08-20 15:11:00,
2013-08-20 11:16:00,82.2,70.2,30.12,NE,38,0.0,0.0,67,0.00,,CLR,0.00,VWS V14.00,2013-08-20 15:16:00,
2013-08-20 11:21:00,82.9,70.4,30.12,North,350,0.0,1.0,66,0.00,,CLR,0.00,VWS V14.00,2013-08-20 15:21:00,
2013-08-20 11:26:00,82.3,71.5,30.12,ENE,63,0.0,0.0,70,0.00,,CLR,0.00,VWS V14.00,2013-08-20 15:26:00,
2013-08-20 11:31:00,81.7,67.9,30.12,North,360,0.0,0.0,63,0.00,,CLR,0.00,VWS V14.00,2013-08-20 15:31:00,
2013-08-20 11:36:00,82.2,70.2,30.12,North,360,0.0,1.0,67,0.00,,CLR,0.00,VWS V14.00,2013-08-20 15:36:00,
2013-08-20 11:41:00,82.6,71.0,30.12,NW,321,0.0,0.0,68,0.00,,CLR,0.00,VWS V14.00,2013-08-20 15:41:00,
2013-08-20 11:46:00,83.4,72.2,30.12,South,183,0.0,1.0,69,0.00,,CLR,0.00,VWS V14.00,2013-08-20 15:46:00,
2013-08-20 11:51:00,83.6,71.9,30.12,South,169,0.0,0.0,68,0.00,,CLR,0.00,VWS V14.00,2013-08-20 15:51:00,
2013-08-20 11:56:00,83.5,70.9,30.12,East,96,1.0,1.0,66,0.00,,CLR,0.00,VWS V14.00,2013-08-20 15:56:00,
2013-08-20 12:01:00,83.6,69.7,30.11,NNE,19,0.0,0.0,63,0.00,,CLR,0.00,VWS V14.00,2013-08-20 16:01:00,
2013-08-20 12:06:00,83.6,69.2,30.11,North,11,0.0,1.0,62,0.00,,CLR,0.00,VWS V14.00,2013-08-20 16:06:00,
2013-08-20 12:11:00,83.3,69.9,30.11,North,360,0.0,1.0,64,0.00,,CLR,0.00,VWS V14.00,2013-08-20 16:11:00,
2013-08-20 12:16:00,83.6,69.7,30.11,NNE,15,3.0,4.0,63,0.00,,CLR,0.00,VWS V14.00,2013-08-20 16:16:00,
2013-08-20 12:21:00,83.7,69.8,30.11,North,5,2.0,2.0,63,0.00,,CLR,0.00,VWS V14.00,2013-08-20 16:21:00,
2013-08-20 12:26:00,83.1,67.3,30.11,East,86,2.0,2.0,59,0.00,,CLR,0.00,VWS V14.00,2013-08-20 16:26:00,
2013-08-20 12:31:00,83.4,69.9,30.11,ESE,118,0.0,1.0,64,0.00,,CLR,0.00,VWS V14.00,2013-08-20 16:31:00,
2013-08-20 12:36:00,83.9,70.9,30.11,South,188,0.0,0.0,65,0.00,,CLR,0.00,VWS V14.00,2013-08-20 16:36:00,
2013-08-20 12:41:00,83.8,69.4,30.11,South,171,0.0,1.0,62,0.00,,CLR,0.00,VWS V14.00,2013-08-20 16:41:00,
2013-08-20 12:46:00,84.3,70.8,30.10,South,173,0.0,0.0,64,0.00,,CLR,0.00,VWS V14.00,2013-08-20 16:46:00,
2013-08-20 12:51:00,84.8,70.3,30.10,NNW,334,1.0,2.0,62,0.00,,CLR,0.00,VWS V14.00,2013-08-20 16:51:00,
2013-08-20 12:56:00,85.1,71.1,30.10,NNE,15,0.0,1.0,63,0.00,,CLR,0.00,VWS V14.00,2013-08-20 16:56:00,
2013-08-20 13:01:00,85.3,69.8,30.10,South,173,1.0,1.0,60,0.00,,SCT060,0.00,VWS V14.00,2013-08-20 17:01:00,
2013-08-20 13:06:00,85.4,69.0,30.10,WSW,240,2.0,3.0,58,0.00,,SCT060,0.00,VWS V14.00,2013-08-20 17:06:00,
2013-08-20 13:11:00,85.1,68.2,30.10,NNW,340,1.0,1.0,57,0.00,,SCT060,0.00,VWS V14.00,2013-08-20 17:11:00,
2013-08-20 13:16:00,85.4,69.0,30.10,SSE,157,0.0,1.0,58,0.00,,SCT060,0.00,VWS V14.00,2013-08-20 17:16:00,
2013-08-20 13:21:00,85.2,68.8,30.10,ENE,76,0.0,1.0,58,0.00,,SCT060,0.00,VWS V14.00,2013-08-20 17:21:00,
2013-08-20 13:26:00,85.0,67.6,30.10,NNW,331,0.0,1.0,56,0.00,,SCT060,0.00,VWS V14.00,2013-08-20 17:26:00,
2013-08-20 13:31:00,85.2,69.8,30.10,NNW,345,0.0,2.0,60,0.00,,SCT060,0.00,VWS V14.00,2013-08-20 17:31:00,
2013-08-20 13:36:00,85.3,69.4,30.10,NNW,347,0.0,1.0,59,0.00,,SCT060,0.00,VWS V14.00,2013-08-20 17:36:00,
2013-08-20 13:41:00,85.2,68.8,30.10,NW,321,1.0,2.0,58,0.00,,SCT060,0.00,VWS V14.00,2013-08-20 17:41:00,
2013-08-20 13:46:00,85.3,69.4,30.10,NW,321,0.0,0.0,59,0.00,,SCT060,0.00,VWS V14.00,2013-08-20 17:46:00,
2013-08-20 13:51:00,85.2,68.8,30.10,NW,321,0.0,0.0,58,0.00,,SCT060,0.00,VWS V14.00,2013-08-20 17:51:00,
2013-08-20 13:56:00,85.1,68.7,30.10,NW,318,1.0,1.0,58,0.00,,SCT060,0.00,VWS V14.00,2013-08-20 17:56:00,
2013-08-20 14:01:00,85.2,70.2,30.09,NW,306,0.0,0.0,61,0.00,,FEW050,0.00,VWS V14.00,2013-08-20 18:01:00,
2013-08-20 14:06:00,85.4,69.9,30.09,NW,306,0.0,2.0,60,0.00,,FEW050,0.00,VWS V14.00,2013-08-20 18:06:00,
2013-08-20 14:11:00,85.4,68.4,30.09,WNW,300,1.0,1.0,57,0.00,,FEW050,0.00,VWS V14.00,2013-08-20 18:11:00,
2013-08-20 14:16:00,85.4,69.4,30.09,West,274,0.0,1.0,59,0.00,,FEW050,0.00,VWS V14.00,2013-08-20 18:16:00,
2013-08-20 14:21:00,85.6,71.1,30.09,South,182,1.0,3.0,62,0.00,,FEW050,0.00,VWS V14.00,2013-08-20 18:21:00,
2013-08-20 14:26:00,85.4,67.9,30.09,South,190,0.0,0.0,56,0.00,,FEW050,0.00,VWS V14.00,2013-08-20 18:26:00,
2013-08-20 14:31:00,85.2,68.8,30.09,NE,45,0.0,1.0,58,0.00,,FEW050,0.00,VWS V14.00,2013-08-20 18:31:00,
2013-08-20 14:36:00,85.1,68.2,30.09,NNE,22,0.0,1.0,57,0.00,,FEW050,0.00,VWS V14.00,2013-08-20 18:36:00,
2013-08-20 14:41:00,85.0,68.6,30.09,NNE,26,0.0,0.0,58,0.00,,FEW050,0.00,VWS V14.00,2013-08-20 18:41:00,
2013-08-20 14:46:00,84.8,69.4,30.08,NNE,26,0.0,0.0,60,0.00,,FEW050,0.00,VWS V14.00,2013-08-20 18:46:00,
2013-08-20 14:51:00,85.0,69.6,30.08,SSE,161,0.0,1.0,60,0.00,,FEW050,0.00,VWS V14.00,2013-08-20 18:51:00,
2013-08-20 14:56:00,85.5,69.1,30.08,North,350,0.0,1.0,58,0.00,,FEW050,0.00,VWS V14.00,2013-08-20 18:56:00,
2013-08-20 15:06:00,85.7,68.2,30.08,SW,225,0.0,4.0,56,0.00,,FEW050,0.00,VWS V14.00,2013-08-20 19:06:00,
2013-08-20 15:11:00,86.2,68.7,30.08,North,360,1.0,1.0,56,0.00,,FEW050,0.00,VWS V14.00,2013-08-20 19:11:00,
2013-08-20 15:15:00,86.5,70.5,30.08,NW,311,0.0,1.0,59,0.00,,FEW050,0.00,VWS V14.00,2013-08-20 19:15:00,
2013-08-20 15:20:00,86.6,68.0,30.08,NW,304,0.0,0.0,54,0.00,,FEW050,0.00,VWS V14.00,2013-08-20 19:20:00,
2013-08-20 15:26:00,86.9,68.8,30.08,NW,313,0.0,1.0,55,0.00,,FEW050,0.00,VWS V14.00,2013-08-20 19:26:00,
2013-08-20 15:30:00,86.8,68.7,30.08,North,360,0.0,0.0,55,0.00,,FEW050,0.00,VWS V14.00,2013-08-20 19:30:00,
2013-08-20 15:35:00,86.7,69.1,30.08,West,267,1.0,2.0,56,0.00,,FEW050,0.00,VWS V14.00,2013-08-20 19:35:00,
2013-08-20 15:40:00,86.5,68.4,30.08,West,271,1.0,2.0,55,0.00,,FEW050,0.00,VWS V14.00,2013-08-20 19:40:00,
2013-08-20 15:45:00,86.4,68.3,30.08,South,190,0.0,0.0,55,0.00,,FEW050,0.00,VWS V14.00,2013-08-20 19:45:00,
2013-08-20 15:51:00,86.3,68.2,30.08,WSW,242,0.0,0.0,55,0.00,,FEW050,0.00,VWS V14.00,2013-08-20 19:51:00,
2013-08-20 15:55:00,86.5,69.5,30.08,ESE,123,0.0,0.0,57,0.00,,FEW050,0.00,VWS V14.00,2013-08-20 19:55:00,
2013-08-20 16:00:00,86.6,68.0,30.07,NNW,327,0.0,0.0,54,0.00,,CLR,0.00,VWS V14.00,2013-08-20 20:00:00,
2013-08-20 16:05:00,86.5,69.0,30.07,West,281,0.0,1.0,56,0.00,,CLR,0.00,VWS V14.00,2013-08-20 20:05:00,
2013-08-20 16:10:00,86.1,67.5,30.07,NNE,18,0.0,1.0,54,0.00,,CLR,0.00,VWS V14.00,2013-08-20 20:10:00,
2013-08-20 16:15:00,86.0,69.0,30.07,NNE,18,1.0,2.0,57,0.00,,CLR,0.00,VWS V14.00,2013-08-20 20:15:00,
2013-08-20 16:20:00,86.0,68.0,30.07,NNW,346,1.0,2.0,55,0.00,,CLR,0.00,VWS V14.00,2013-08-20 20:20:00,
2013-08-20 16:25:00,86.1,69.6,30.07,WNW,288,0.0,0.0,58,0.00,,CLR,0.00,VWS V14.00,2013-08-20 20:25:00,
2013-08-20 16:30:00,86.0,67.4,30.06,SSW,210,0.0,0.0,54,0.00,,CLR,0.00,VWS V14.00,2013-08-20 20:30:00,
2013-08-20 16:35:00,85.8,68.3,30.06,WNW,296,0.0,0.0,56,0.00,,CLR,0.00,VWS V14.00,2013-08-20 20:35:00,
2013-08-20 16:40:00,85.6,66.0,30.06,SSW,199,0.0,0.0,52,0.00,,CLR,0.00,VWS V14.00,2013-08-20 20:40:00,
2013-08-20 16:45:00,85.6,68.1,30.06,NNW,331,0.0,0.0,56,0.00,,CLR,0.00,VWS V14.00,2013-08-20 20:45:00,
2013-08-20 16:50:00,85.8,67.8,30.06,NW,304,0.0,0.0,55,0.00,,CLR,0.00,VWS V14.00,2013-08-20 20:50:00,
2013-08-20 16:55:00,85.8,67.2,30.06,SSE,165,0.0,0.0,54,0.00,,CLR,0.00,VWS V14.00,2013-08-20 20:55:00,
2013-08-20 17:00:00,85.8,67.8,30.07,NNE,25,0.0,1.0,55,0.00,,CLR,0.00,VWS V14.00,2013-08-20 21:00:00,
2013-08-20 17:05:00,85.6,68.1,30.07,North,5,1.0,2.0,56,0.00,,CLR,0.00,VWS V14.00,2013-08-20 21:05:00,
2013-08-20 17:10:00,85.2,68.3,30.07,North,360,0.0,0.0,57,0.00,,CLR,0.00,VWS V14.00,2013-08-20 21:10:00,
2013-08-20 17:15:00,84.8,68.4,30.06,ESE,114,0.0,0.0,58,0.00,,CLR,0.00,VWS V14.00,2013-08-20 21:15:00,
2013-08-20 17:20:00,84.7,68.8,30.06,NW,323,3.0,3.0,59,0.00,,CLR,0.00,VWS V14.00,2013-08-20 21:20:00,
2013-08-20 17:25:00,84.6,69.2,30.06,WNW,284,0.0,0.0,60,0.00,,CLR,0.00,VWS V14.00,2013-08-20 21:25:00,
2013-08-20 17:30:00,84.5,68.6,30.07,WSW,250,0.0,1.0,59,0.00,,CLR,0.00,VWS V14.00,2013-08-20 21:30:00,
2013-08-20 17:35:00,84.5,69.6,30.07,SSW,205,0.0,0.0,61,0.00,,CLR,0.00,VWS V14.00,2013-08-20 21:35:00,
2013-08-20 17:40:00,84.3,68.4,30.07,West,280,0.0,0.0,59,0.00,,CLR,0.00,VWS V14.00,2013-08-20 21:40:00,
2013-08-20 17:45:00,84.0,69.6,30.07,West,280,0.0,0.0,62,0.00,,CLR,0.00,VWS V14.00,2013-08-20 21:45:00,
2013-08-20 17:50:00,83.5,69.1,30.07,West,281,0.0,0.0,62,0.00,,CLR,0.00,VWS V14.00,2013-08-20 21:50:00,
2013-08-20 17:55:00,83.1,69.2,30.07,West,273,0.0,0.0,63,0.00,,CLR,0.00,VWS V14.00,2013-08-20 21:55:00,
2013-08-20 18:00:00,82.7,68.8,30.07,SSW,207,0.0,0.0,63,0.00,,CLR,0.00,VWS V14.00,2013-08-20 22:00:00,
2013-08-20 18:05:00,82.5,70.0,30.07,North,360,2.0,2.0,66,0.00,,CLR,0.00,VWS V14.00,2013-08-20 22:05:00,
2013-08-20 18:10:00,82.3,69.8,30.07,SW,219,0.0,0.0,66,0.00,,CLR,0.00,VWS V14.00,2013-08-20 22:10:00,
2013-08-20 18:15:00,82.1,69.2,30.07,NW,325,1.0,1.0,65,0.00,,CLR,0.00,VWS V14.00,2013-08-20 22:15:00,
2013-08-20 18:20:00,81.9,69.4,30.07,WNW,303,0.0,0.0,66,0.00,,CLR,0.00,VWS V14.00,2013-08-20 22:20:00,
2013-08-20 18:25:00,81.8,69.3,30.07,WNW,302,0.0,1.0,66,0.00,,CLR,0.00,VWS V14.00,2013-08-20 22:25:00,
2013-08-20 18:30:00,81.5,69.5,30.07,WNW,302,0.0,0.0,67,0.00,,CLR,0.00,VWS V14.00,2013-08-20 22:30:00,
2013-08-20 18:35:00,81.3,69.7,30.07,WNW,302,0.0,0.0,68,0.00,,CLR,0.00,VWS V14.00,2013-08-20 22:35:00,
2013-08-20 18:40:00,81.1,69.6,30.07,WNW,300,0.0,0.0,68,0.00,,CLR,0.00,VWS V14.00,2013-08-20 22:40:00,
2013-08-20 18:46:00,80.8,69.3,30.07,WNW,298,0.0,0.0,68,0.00,,CLR,0.00,VWS V14.00,2013-08-20 22:46:00,
2013-08-20 18:50:00,80.7,69.2,30.07,West,264,0.0,0.0,68,0.00,,CLR,0.00,VWS V14.00,2013-08-20 22:50:00,
2013-08-20 18:55:00,80.6,69.1,30.07,West,263,1.0,1.0,68,0.00,,CLR,0.00,VWS V14.00,2013-08-20 22:55:00,
2013-08-20 19:00:00,80.4,68.4,30.07,SSW,203,0.0,1.0,67,0.00,,CLR,0.00,VWS V14.00,2013-08-20 23:00:00,
2013-08-20 19:05:00,80.3,68.3,30.07,SSW,203,0.0,0.0,67,0.00,,CLR,0.00,VWS V14.00,2013-08-20 23:05:00,
2013-08-20 19:10:00,80.2,67.8,30.07,SW,223,0.0,0.0,66,0.00,,CLR,0.00,VWS V14.00,2013-08-20 23:10:00,
2013-08-20 19:15:00,80.0,68.1,30.08,SW,223,0.0,0.0,67,0.00,,CLR,0.00,VWS V14.00,2013-08-20 23:15:00,
2013-08-20 19:20:00,79.9,68.4,30.08,SW,222,0.0,0.0,68,0.00,,CLR,0.00,VWS V14.00,2013-08-20 23:20:00,
2013-08-20 19:25:00,79.6,68.1,30.08,SW,224,0.0,0.0,68,0.00,,CLR,0.00,VWS V14.00,2013-08-20 23:25:00,
2013-08-20 19:30:00,79.3,67.8,30.08,SW,224,0.0,0.0,68,0.00,,CLR,0.00,VWS V14.00,2013-08-20 23:30:00,
2013-08-20 19:35:00,79.1,67.6,30.08,SW,224,0.0,0.0,68,0.00,,CLR,0.00,VWS V14.00,2013-08-20 23:35:00,
2013-08-20 19:40:00,78.7,67.7,30.08,SW,223,0.0,0.0,69,0.00,,CLR,0.00,VWS V14.00,2013-08-20 23:40:00,
2013-08-20 19:45:00,78.5,67.9,30.08,SW,224,0.0,0.0,70,0.00,,CLR,0.00,VWS V14.00,2013-08-20 23:45:00,
2013-08-20 19:50:00,78.1,67.5,30.08,SW,224,0.0,0.0,70,0.00,,CLR,0.00,VWS V14.00,2013-08-20 23:50:00,
2013-08-20 19:55:00,77.7,67.6,30.08,SW,223,0.0,0.0,71,0.00,,CLR,0.00,VWS V14.00,2013-08-20 23:55:00,
2013-08-20 20:06:00,77.0,67.3,30.08,North,0,0.0,0.0,72,0.00,,CLR,0.00,VWS V14.00,2013-08-21 00:06:00,
2013-08-20 20:11:00,76.6,67.3,30.08,SW,224,0.0,0.0,73,0.00,,CLR,0.00,VWS V14.00,2013-08-21 00:11:00,
2013-08-20 20:16:00,76.3,67.4,30.08,SW,224,0.0,0.0,74,0.00,,CLR,0.00,VWS V14.00,2013-08-21 00:16:00,
2013-08-20 20:22:00,76.0,67.1,30.08,SW,224,0.0,0.0,74,0.00,,CLR,0.00,VWS V14.00,2013-08-21 00:22:00,
2013-08-20 20:27:00,75.7,67.2,30.08,SW,224,0.0,0.0,75,0.00,,CLR,0.00,VWS V14.00,2013-08-21 00:27:00,
2013-08-20 20:32:00,75.4,66.9,30.08,SW,224,0.0,0.0,75,0.00,,CLR,0.00,VWS V14.00,2013-08-21 00:32:00,
2013-08-20 20:37:00,75.1,67.0,30.08,SW,223,0.0,0.0,76,0.00,,CLR,0.00,VWS V14.00,2013-08-21 00:37:00,
2013-08-20 20:42:00,74.9,66.8,30.08,SW,224,0.0,0.0,76,0.00,,CLR,0.00,VWS V14.00,2013-08-21 00:42:00,
2013-08-20 20:47:00,74.7,67.0,30.09,SW,224,0.0,0.0,77,0.00,,CLR,0.00,VWS V14.00,2013-08-21 00:47:00,
2013-08-20 20:52:00,74.4,66.3,30.09,SW,223,0.0,0.0,76,0.00,,CLR,0.00,VWS V14.00,2013-08-21 00:52:00,
2013-08-20 20:57:00,74.2,66.5,30.09,SW,224,0.0,0.0,77,0.00,,CLR,0.00,VWS V14.00,2013-08-21 00:57:00,
2013-08-20 21:02:00,74.1,66.4,30.10,SW,224,0.0,0.0,77,0.00,,CLR,0.00,VWS V14.00,2013-08-21 01:02:00,
2013-08-20 21:07:00,73.9,66.6,30.10,SW,224,0.0,0.0,78,0.00,,CLR,0.00,VWS V14.00,2013-08-21 01:07:00,
2013-08-20 21:12:00,73.7,66.4,30.10,SW,223,0.0,0.0,78,0.00,,CLR,0.00,VWS V14.00,2013-08-21 01:12:00,
2013-08-20 21:17:00,73.6,66.7,30.11,SW,224,0.0,0.0,79,0.00,,CLR,0.00,VWS V14.00,2013-08-21 01:17:00,
2013-08-20 21:19:00,73.5,66.6,30.11,SW,224,0.0,0.0,79,0.00,,CLR,0.00,VWS V14.00,2013-08-21 01:19:00,
2013-08-20 21:24:00,73.3,66.4,30.11,SW,223,0.0,0.0,79,0.00,,CLR,0.00,VWS V14.00,2013-08-21 01:24:00,
2013-08-20 21:29:00,73.2,66.3,30.11,SW,224,0.0,0.0,79,0.00,,CLR,0.00,VWS V14.00,2013-08-21 01:29:00,
2013-08-20 21:34:00,73.1,66.6,30.11,SW,224,0.0,0.0,80,0.00,,CLR,0.00,VWS V14.00,2013-08-21 01:34:00,
2013-08-20 21:39:00,72.9,66.0,30.11,SW,224,0.0,0.0,79,0.00,,CLR,0.00,VWS V14.00,2013-08-21 01:39:00,
2013-08-20 21:44:00,72.8,65.9,30.11,SW,223,0.0,0.0,79,0.00,,CLR,0.00,VWS V14.00,2013-08-21 01:44:00,
2013-08-20 21:49:00,72.7,65.8,30.11,SW,224,0.0,0.0,79,0.00,,CLR,0.00,VWS V14.00,2013-08-21 01:49:00,
2013-08-20 21:54:00,72.6,65.7,30.11,SW,224,0.0,0.0,79,0.00,,CLR,0.00,VWS V14.00,2013-08-21 01:54:00,
2013-08-20 21:59:00,72.6,65.7,30.11,SW,223,0.0,0.0,79,0.00,,CLR,0.00,VWS V14.00,2013-08-21 01:59:00,
2013-08-20 22:04:00,72.4,65.9,30.12,SW,223,0.0,0.0,80,0.00,,CLR,0.00,VWS V14.00,2013-08-21 02:04:00,
2013-08-20 22:09:00,72.2,65.7,30.12,SW,224,0.0,0.0,80,0.00,,CLR,0.00,VWS V14.00,2013-08-21 02:09:00,
2013-08-20 22:14:00,72.1,65.9,30.12,SW,224,0.0,0.0,81,0.00,,CLR,0.00,VWS V14.00,2013-08-21 02:14:00,
2013-08-20 22:19:00,71.8,65.7,30.12,SW,223,0.0,0.0,81,0.00,,CLR,0.00,VWS V14.00,2013-08-21 02:19:00,
2013-08-20 22:24:00,71.6,65.8,30.12,SW,224,0.0,0.0,82,0.00,,CLR,0.00,VWS V14.00,2013-08-21 02:24:00,
2013-08-20 22:29:00,71.3,65.5,30.12,SW,224,0.0,0.0,82,0.00,,CLR,0.00,VWS V14.00,2013-08-21 02:29:00,
2013-08-20 22:34:00,71.2,65.4,30.12,SW,223,0.0,0.0,82,0.00,,CLR,0.00,VWS V14.00,2013-08-21 02:34:00,
2013-08-20 22:39:00,71.0,65.2,30.12,SW,224,0.0,0.0,82,0.00,,CLR,0.00,VWS V14.00,2013-08-21 02:39:00,
2013-08-20 22:44:00,70.8,65.0,30.12,SW,224,0.0,0.0,82,0.00,,CLR,0.00,VWS V14.00,2013-08-21 02:44:00,
2013-08-20 22:49:00,70.6,65.2,30.12,SW,224,0.0,0.0,83,0.00,,CLR,0.00,VWS V14.00,2013-08-21 02:49:00,
2013-08-20 22:54:00,70.4,65.0,30.12,SW,223,0.0,0.0,83,0.00,,CLR,0.00,VWS V14.00,2013-08-21 02:54:00,
2013-08-20 22:59:00,70.3,65.2,30.12,SW,224,0.0,0.0,84,0.00,,CLR,0.00,VWS V14.00,2013-08-21 02:59:00,
2013-08-20 23:04:00,70.1,65.1,30.12,SW,223,0.0,0.0,84,0.00,,CLR,0.00,VWS V14.00,2013-08-21 03:04:00,
2013-08-20 23:09:00,69.9,64.8,30.12,SW,223,0.0,0.0,84,0.00,,CLR,0.00,VWS V14.00,2013-08-21 03:09:00,
2013-08-20 23:14:00,69.8,64.8,30.12,SW,224,0.0,0.0,84,0.00,,CLR,0.00,VWS V14.00,2013-08-21 03:14:00,
2013-08-20 23:19:00,69.7,64.7,30.12,SW,224,0.0,0.0,84,0.00,,CLR,0.00,VWS V14.00,2013-08-21 03:19:00,
2013-08-20 23:24:00,69.6,64.6,30.12,SW,224,0.0,0.0,84,0.00,,CLR,0.00,VWS V14.00,2013-08-21 03:24:00,
2013-08-20 23:29:00,69.5,64.5,30.12,SW,224,0.0,0.0,84,0.00,,CLR,0.00,VWS V14.00,2013-08-21 03:29:00,
2013-08-20 23:34:00,69.4,64.4,30.12,SW,224,0.0,0.0,84,0.00,,CLR,0.00,VWS V14.00,2013-08-21 03:34:00,
2013-08-20 23:39:00,69.3,64.6,30.12,SW,223,0.0,0.0,85,0.00,,CLR,0.00,VWS V14.00,2013-08-21 03:39:00,
2013-08-20 23:44:00,69.2,64.5,30.12,SW,223,0.0,0.0,85,0.00,,CLR,0.00,VWS V14.00,2013-08-21 03:44:00,
2013-08-20 23:49:00,69.0,64.3,30.13,SW,223,0.0,0.0,85,0.00,,CLR,0.00,VWS V14.00,2013-08-21 03:49:00,
2013-08-20 23:54:00,68.9,64.2,30.13,SW,224,0.0,0.0,85,0.00,,CLR,0.00,VWS V14.00,2013-08-21 03:54:00,
2013-08-20 23:59:00,68.8,64.4,30.13,SW,224,0.0,0.0,86,0.00,,CLR,0.00,VWS V14.00,2013-08-21 03:59:00,